Hourly Data Report for September 30, 2017

All times are specified in Local Standard Time (LST). Add 1 hour to adjust for Daylight Saving Time where and when it is observed.

COMOX A
BRITISH COLUMBIA

49°43'00.000" N
124°54'00.000" W
25.60 m
1021830
71893
YQQ

Download Data

Hourly Data (September 2017)
Hourly Data Report for September 30, 2017
Temp Definition
°C
Dew Point Temp Definition
°C
Rel Hum Definition
%
Wind Dir Definition
10's deg

Wind Spd Definition
km/h
Visibility Definition
km
Stn Press Definition
kPa
Hmdx Definition


Wind Chill Definition


Weather Definition


TIME
00:00 11.6 10.8 95 21 6 32.2 101.27     Mostly Cloudy
01:00 11.1 10.6 97 1 6 32.2 101.28     Mostly Cloudy
02:00 11.4 9.5 88 28 7 32.2 101.30     Cloudy
03:00 10.9 9.7 92 26 4 32.2 101.32     Mostly Cloudy
04:00 9.8 9.5 98   0 32.2 101.31     Mainly Clear
05:00 8.3 8.2 99 31 6 32.2 101.31     Mainly Clear
06:00 7.9 7.6 98 21 4 32.2 101.32     Mostly Cloudy
07:00 9.3 8.6 95 28 4 32.2 101.34     Mostly Cloudy
08:00 10.4 9.6 95   0 32.2 101.37     Mostly Cloudy
09:00 11.9 10.1 89   0 32.2 101.40     Rain Showers
10:00 12.9 8.6 75 19 6 32.2 101.42     Mostly Cloudy
11:00 13.2 8.8 75 9 7 32.2 101.42     Mostly Cloudy
12:00 13.1 9.8 80 11 4 32.2 101.40     Mostly Cloudy
13:00 12.7 10.3 85 35 7 32.2 101.41     Rain Showers
14:00 12.7 11.4 92 30 7 32.2 101.43     Rain Showers
15:00 13.2 10.4 83 35 9 32.2 101.49     Mostly Cloudy
16:00 13.1 10.7 85 33 7 32.2 101.49     Mostly Cloudy
17:00 13.4 9.6 78 32 4 32.2 101.50     Mainly Clear
18:00 12.3 9.5 83 35 4 32.2 101.52     Mainly Clear
19:00 10.6 9.7 94 27 6 32.2 101.53     Mainly Clear
20:00 11.0 10.2 95 27 6 32.2 101.54     Mainly Clear
21:00 10.3 8.6 89 29 4 32.2 101.55     Mainly Clear
22:00 9.9 7.9 87 29 11 32.2 101.59     Mainly Clear
23:00 9.5 7.4 87 29 9 32.2 101.62     Clear

Notes on Data Quality.

Legend

  • E = Estimated
  • M = Missing
  • NA = Not Available
  • ‡ = Partner data that is not subject to review by the National Climate Archives
Date modified: